This is the latest recevied weather packets stored in our database for station/object W4MSI. If no packets are shown the sender has not sent any weather packets the latest 10 day(s).
| Time | Temp. | Humidity | Pressure | Rain* | Wind** | Luminosity | Snow |
|---|---|---|---|---|---|---|---|
| 1777507951 | 16.67° C | 66% | 1013.5 hPa | 0 mm | - | 20 W/m² | - |
| 1777507648 | 16.67° C | 64% | 1013.6 hPa | 0 mm | - | 23 W/m² | - |
| 1777507345 | 17.22° C | 65% | 1013.4 hPa | 0 mm | - | 28 W/m² | - |
| 1777507042 | 17.22° C | 65% | 1013.4 hPa | 0 mm | - | 34 W/m² | - |
| 1777506740 | 17.22° C | 66% | 1013.2 hPa | 0 mm | - | 35 W/m² | - |
| 1777506436 | 17.22° C | 65% | 1012.8 hPa | 0 mm | - | 39 W/m² | - |
| 1777506132 | 17.78° C | 67% | 1012.9 hPa | 0 mm | - | 44 W/m² | - |
| 1777505827 | 17.78° C | 67% | 1012.9 hPa | 0 mm | - | 44 W/m² | - |
| 1777505524 | 17.78° C | 64% | 1012.7 hPa | 0 mm | - | 48 W/m² | - |
| 1777505221 | 17.78° C | 66% | 1012.7 hPa | 0 mm | - | 85 W/m² | - |
| 1777504917 | 18.33° C | 67% | 1012.5 hPa | 0 mm | - | 51 W/m² | - |
| 1777504615 | 18.33° C | 63% | 1012.6 hPa | 0 mm | - | 83 W/m² | - |
| 1777504310 | 18.33° C | 64% | 1012.6 hPa | 0 mm | - | 67 W/m² | - |
| 1777504006 | 18.33° C | 66% | 1012.7 hPa | 0 mm | - | 72 W/m² | - |
| 1777503703 | 18.33° C | 65% | 1012.7 hPa | 0 mm | - | 125 W/m² | - |
| 1777503400 | 18.33° C | 65% | 1012.8 hPa | 0 mm | - | 134 W/m² | - |
| 1777503095 | 18.33° C | 68% | 1012.5 hPa | 0 mm | - | 182 W/m² | - |
| 1777502793 | 18.33° C | 69% | 1012.8 hPa | 0 mm | - | 108 W/m² | - |
| 1777502490 | 18.89° C | 66% | 1012.7 hPa | 0 mm | - | 91 W/m² | - |
| 1777502187 | 18.89° C | 65% | 1012.8 hPa | 0 mm | - | 101 W/m² | - |
| 1777501885 | 19.44° C | 63% | 1012.8 hPa | 0 mm | - | 132 W/m² | - |
| 1777501581 | 19.44° C | 62% | 1012.7 hPa | 0 mm | - | 296 W/m² | - |
| 1777501278 | 20° C | 59% | 1012.8 hPa | 0 mm | - | 189 W/m² | - |
| 1777500976 | 20° C | 57% | 1012.6 hPa | 0 mm | - | 269 W/m² | - |
| 1777500674 | 20° C | 58% | 1012.7 hPa | 0 mm | - | 322 W/m² | - |
* Rain latest hour (hover to see other rain measurements)
** Current wind speed in m/s (hover to see current wind gust speed)